Météo par heure à Alimtau

Ce jour, 15 Mai, Samedi

Heure Température Précipitation Vent Pression Humidité
00:00 +18°C° 0 mm 8 m/s 722 mmHg 38%
01:00 +17°C° 0 mm 6 m/s 722 mmHg 41%
02:00 +16°C° 0 mm 5 m/s 721 mmHg 43%
03:00 +15°C° 0 mm 5 m/s 721 mmHg 47%
04:00 +15°C° 0 mm 4 m/s 722 mmHg 51%
05:00 +14°C° 0 mm 3 m/s 722 mmHg 56%
06:00 +17°C° 0 mm 4 m/s 722 mmHg 52%
07:00 +18°C° 0 mm 4 m/s 723 mmHg 47%
08:00 +20°C° 0 mm 4 m/s 723 mmHg 43%
09:00 +22°C° 0 mm 4 m/s 723 mmHg 40%
10:00 +24°C° 0 mm 3 m/s 723 mmHg 36%
11:00 +26°C° 0 mm 3 m/s 724 mmHg 31%
12:00 +27°C° 0 mm 3 m/s 723 mmHg 30%
13:00 +28°C° 0 mm 3 m/s 723 mmHg 29%
14:00 +29°C° 0 mm 3 m/s 723 mmHg 28%
15:00 +29°C° 0 mm 3 m/s 723 mmHg 29%
16:00 +29°C° 0 mm 3 m/s 723 mmHg 30%
17:00 +28°C° 0 mm 4 m/s 722 mmHg 31%
18:00 +26°C° 0 mm 4 m/s 722 mmHg 37%
19:00 +22°C° 0 mm 4 m/s 722 mmHg 42%
20:00 +20°C° 0 mm 4 m/s 722 mmHg 48%
21:00 +19°C° 0 mm 4 m/s 722 mmHg 48%
22:00 +18°C° 0 mm 3 m/s 722 mmHg 49%
23:00 +18°C° 0 mm 3 m/s 722 mmHg 49%

Demain, 16 Mai, Dimanche

Heure Température Précipitation Vent Pression Humidité
00:00 +17°C° 0 mm 3 m/s 722 mmHg 51%
01:00 +17°C° 0 mm 2 m/s 721 mmHg 54%
02:00 +17°C° 0 mm 2 m/s 721 mmHg 57%
03:00 +17°C° 0 mm 2 m/s 721 mmHg 58%
04:00 +16°C° 0 mm 2 m/s 721 mmHg 60%
05:00 +16°C° 0 mm 2 m/s 721 mmHg 61%
06:00 +18°C° 0 mm 2 m/s 722 mmHg 55%
07:00 +20°C° 0 mm 2 m/s 723 mmHg 49%
08:00 +23°C° 0 mm 2 m/s 723 mmHg 43%
09:00 +25°C° 0 mm 2 m/s 723 mmHg 38%
10:00 +26°C° 0 mm 2 m/s 724 mmHg 34%
11:00 +28°C° 0 mm 2 m/s 724 mmHg 29%
12:00 +29°C° 0 mm 1 m/s 724 mmHg 26%
13:00 +30°C° 0 mm 1 m/s 723 mmHg 23%
14:00 +31°C° 0 mm 1 m/s 723 mmHg 21%
15:00 +31°C° 0 mm 2 m/s 723 mmHg 23%
16:00 +30°C° 0 mm 3 m/s 723 mmHg 25%
17:00 +30°C° 0 mm 5 m/s 722 mmHg 27%
18:00 +27°C° 0 mm 5 m/s 722 mmHg 33%
19:00 +25°C° 0 mm 4 m/s 722 mmHg 39%
20:00 +21°C° 0 mm 4 m/s 722 mmHg 45%
21:00 +20°C° 0 mm 4 m/s 722 mmHg 45%
22:00 +20°C° 0 mm 3 m/s 722 mmHg 45%
23:00 +19°C° 0 mm 2 m/s 722 mmHg 45%

Après-demain, 17 Mai, Lundi

Heure Température Précipitation Vent Pression Humidité
00:00 +19°C° 0 mm 2 m/s 722 mmHg 43%
01:00 +19°C° 0 mm 2 m/s 722 mmHg 42%
02:00 +19°C° 0 mm 2 m/s 722 mmHg 40%
03:00 +19°C° 0 mm 2 m/s 722 mmHg 39%
04:00 +18°C° 0 mm 2 m/s 722 mmHg 38%
05:00 +18°C° 0 mm 2 m/s 722 mmHg 36%
06:00 +21°C° 0 mm 2 m/s 723 mmHg 34%
07:00 +24°C° 0 mm 2 m/s 723 mmHg 32%
08:00 +26°C° 0 mm 2 m/s 724 mmHg 30%
09:00 +28°C° 0 mm 2 m/s 724 mmHg 27%
10:00 +30°C° 0 mm 2 m/s 724 mmHg 24%
11:00 +32°C° 0 mm 2 m/s 724 mmHg 21%
12:00 +32°C° 0 mm 1 m/s 724 mmHg 19%
13:00 +33°C° 0 mm 1 m/s 724 mmHg 17%
14:00 +34°C° 0 mm 1 m/s 724 mmHg 16%
15:00 +35°C° 0 mm 2 m/s 723 mmHg 18%
16:00 +34°C° 0 mm 3 m/s 723 mmHg 20%
17:00 +34°C° 0 mm 4 m/s 723 mmHg 22%
18:00 +30°C° 0 mm 4 m/s 723 mmHg 29%
19:00 +27°C° 0 mm 4 m/s 722 mmHg 36%
20:00 +23°C° 0 mm 4 m/s 722 mmHg 43%
21:00 +24°C° 0 mm 3 m/s 722 mmHg 40%
22:00 +24°C° 0 mm 3 m/s 722 mmHg 37%
23:00 +23°C° 0 mm 2 m/s 722 mmHg 35%

18 Mai, Mardi

Heure Température Précipitation Vent Pression Humidité
00:00 +23°C° 0 mm 2 m/s 722 mmHg 34%
01:00 +21°C° 0 mm 2 m/s 722 mmHg 34%
02:00 +21°C° 0 mm 2 m/s 721 mmHg 33%
03:00 +21°C° 0 mm 2 m/s 721 mmHg 33%
04:00 +20°C° 0 mm 2 m/s 721 mmHg 32%
05:00 +21°C° 0 mm 1 m/s 721 mmHg 32%
06:00 +23°C° 0 mm 1 m/s 722 mmHg 30%
07:00 +25°C° 0 mm 1 m/s 722 mmHg 28%
08:00 +28°C° 0 mm 1 m/s 722 mmHg 26%
09:00 +30°C° 0 mm 1 m/s 722 mmHg 23%
10:00 +32°C° 0 mm 1 m/s 722 mmHg 20%
11:00 +33°C° 0 mm 1 m/s 722 mmHg 17%
12:00 +34°C° 0 mm 1 m/s 722 mmHg 15%
13:00 +34°C° 0 mm 1 m/s 722 mmHg 14%
14:00 +35°C° 0 mm 1 m/s 721 mmHg 12%
15:00 +35°C° 0 mm 1 m/s 721 mmHg 13%
16:00 +36°C° 0 mm 2 m/s 721 mmHg 13%
17:00 +36°C° 0 mm 2 m/s 721 mmHg 13%
18:00 +33°C° 0 mm 3 m/s 720 mmHg 20%
19:00 +29°C° 0 mm 3 m/s 720 mmHg 27%
20:00 +26°C° 0 mm 4 m/s 720 mmHg 34%
21:00 +26°C° 0 mm 4 m/s 720 mmHg 32%
22:00 +25°C° 0 mm 3 m/s 720 mmHg 31%
23:00 +25°C° 0 mm 3 m/s 720 mmHg 29%

19 Mai, Mercredi

Heure Température Précipitation Vent Pression Humidité
00:00 +24°C° 0 mm 3 m/s 720 mmHg 29%
01:00 +22°C° 0 mm 3 m/s 720 mmHg 30%
02:00 +22°C° 0 mm 3 m/s 720 mmHg 30%
03:00 +23°C° 0 mm 2 m/s 720 mmHg 30%
04:00 +23°C° 0 mm 2 m/s 720 mmHg 29%
05:00 +23°C° 0 mm 2 m/s 720 mmHg 29%
06:00 +25°C° 0 mm 1 m/s 720 mmHg 27%
07:00 +27°C° 0 mm 1 m/s 720 mmHg 26%
08:00 +29°C° 0 mm 1 m/s 721 mmHg 25%
09:00 +30°C° 0 mm 1 m/s 721 mmHg 22%
10:00 +32°C° 0 mm 1 m/s 721 mmHg 19%
11:00 +34°C° 0 mm 1 m/s 721 mmHg 16%
12:00 +35°C° 0 mm 1 m/s 720 mmHg 15%
13:00 +35°C° 0 mm 1 m/s 720 mmHg 14%
14:00 +36°C° 0 mm 1 m/s 720 mmHg 12%
15:00 +34°C° 0.1 mm 3 m/s 720 mmHg 18%
16:00 +32°C° 0.1 mm 5 m/s 720 mmHg 24%
17:00 +28°C° 0.1 mm 7 m/s 720 mmHg 30%
18:00 +27°C° 0.3 mm 7 m/s 720 mmHg 32%
19:00 +26°C° 0.3 mm 6 m/s 720 mmHg 33%
20:00 +25°C° 0.3 mm 5 m/s 720 mmHg 34%
21:00 +23°C° 0 mm 4 m/s 720 mmHg 35%
22:00 +23°C° 0 mm 4 m/s 720 mmHg 35%
23:00 +22°C° 0 mm 3 m/s 720 mmHg 35%

20 Mai, Jeudi

Heure Température Précipitation Vent Pression Humidité
00:00 +22°C° 0 mm 3 m/s 720 mmHg 36%
01:00 +21°C° 0 mm 3 m/s 720 mmHg 36%
02:00 +21°C° 0 mm 3 m/s 720 mmHg 37%
03:00 +21°C° 0 mm 3 m/s 720 mmHg 36%
04:00 +20°C° 0 mm 3 m/s 720 mmHg 36%
05:00 +20°C° 0 mm 2 m/s 720 mmHg 35%
06:00 +22°C° 0 mm 3 m/s 721 mmHg 33%
07:00 +26°C° 0 mm 3 m/s 721 mmHg 31%
08:00 +28°C° 0 mm 4 m/s 722 mmHg 28%
09:00 +29°C° 0 mm 5 m/s 722 mmHg 26%
10:00 +32°C° 0 mm 6 m/s 722 mmHg 24%
11:00 +34°C° 0 mm 7 m/s 722 mmHg 22%
12:00 +34°C° 0 mm 7 m/s 722 mmHg 22%
13:00 +34°C° 0 mm 8 m/s 722 mmHg 22%
14:00 +34°C° 0 mm 8 m/s 722 mmHg 22%
15:00 +34°C° 0 mm 9 m/s 721 mmHg 25%
16:00 +33°C° 0 mm 9 m/s 721 mmHg 28%
17:00 +32°C° 0 mm 9 m/s 721 mmHg 30%
18:00 +31°C° 0 mm 9 m/s 721 mmHg 32%
19:00 +28°C° 0 mm 10 m/s 720 mmHg 34%
20:00 +26°C° 0 mm 10 m/s 720 mmHg 35%
21:00 +24°C° 0 mm 9 m/s 720 mmHg 37%
22:00 +23°C° 0 mm 8 m/s 720 mmHg 39%
23:00 +21°C° 0 mm 7 m/s 720 mmHg 41%
Voir plus

Nous avons besoin de votre consentement

Meteoprog et ses fournisseurs de services peuvent stocker et accéder à des données personnelles telles que des cookies, des identifiants d'appareils ou d'autres technologies similaires sur votre appareil et traiter ces données pour personnaliser le contenu et les publicités, ainsi que pour fournir des fonctionnalités de médias sociaux et analyser le trafic.

  • Stocker et/ou accéder à des informations sur votre appareil

    Des cookies, des identifiants d'appareils ou d'autres informations peuvent être stockés ou accessibles sur votre appareil aux fins indiquées ci-dessus.

  • Annonces et contenus personnalisés, mesure des annonces et des contenus, connaissance de l'audience et développement de produits

    Les annonces et le contenu peuvent être personnalisés en fonction d'un profil. D'autres données peuvent être ajoutées pour mieux personnaliser les annonces et le contenu. Les performances des publicités et du contenu peuvent être mesurées. Il est possible d'obtenir des informations sur le public qui a vu les publicités et le contenu. Ces données peuvent être utilisées pour développer ou améliorer l'expérience de l'utilisateur, les systèmes et les logiciels.

En cliquant sur "J'accepte", vous autorisez l'utilisation de cookies, des identifiants d'appareils, des balises web ou d'autres technologies similaires. Vos paramètres peuvent être modifiés dans le navigateur de votre appareil.

Dans certains cas, des intérêts légitimes peuvent être invoqués plutôt qu'un consentement. Vous pouvez en savoir plus à ce sujet dans notre Politique de confidentialité et de cookies.